Mehmet Bey — 9HUD6 — position and weather

sailwx.info

Track history (hours):
 
Tides and Currents Weather Stations Pressure Air Temp Water Temp Dewpoint Dewpoint Depression Visibility Wind Speed Wind Dir Waves Ship Positions

Mehmet Bey

Last reported at 2014-Oct-31 09:33 UTC. Time now 2014-Oct-31 09:58 UTC.
Position N 40°49' E 029°04'.

Length 131 m; draft 6.5 m.

Type: Cargo ship. MMSI: 248864000.

Date/timePositionNaut miles runAvg speedWind from/ knotsBaromVisibWave heightAir tempDewpointWater temp
2014-Oct-31 09:33N 40°49' E 029°04'10 8.8
2014-Oct-31 08:27N 40°56' E 028°55'2 1.2
2014-Oct-31 06:29N 40°58' E 028°54'0 0.0
2014-Oct-31 05:29N 40°58' E 028°54'0 0.0
2014-Oct-31 04:29N 40°58' E 028°54'1 0.3
2014-Oct-31 01:32N 40°57' E 028°55'7 6.7
2014-Oct-31 00:32N 40°51' E 028°50'  
2014-Oct-21 19:30N 40°55' E 027°38'34 8.4
2014-Oct-21 15:26N 40°52' E 028°23'11 8.5
2014-Oct-21 14:08N 40°54' E 028°37'6 8.1
2014-Oct-21 13:21N 40°55' E 028°45'7 8.0
2014-Oct-21 12:32N 40°58' E 028°53'0 0.2
2014-Oct-21 10:24N 40°58' E 028°54'  
Track history (hours):
 
Tides and Currents Weather Stations Pressure Air Temp Water Temp Dewpoint Dewpoint Depression Visibility Wind Speed Wind Dir Waves Ship Positions

Mehmet Bey

Last reported at 2014-Oct-31 09:33 UTC. Time now 2014-Oct-31 09:58 UTC.
Position N 40°49' E 029°04'.

Length 131 m; draft 6.5 m.

Type: Cargo ship. MMSI: 248864000.

Date/timePositionNaut miles runAvg speedWind from/ knotsBaromVisibWave heightAir tempDewpointWater temp
2014-Oct-31 09:33N 40°49' E 029°04'10 8.8
2014-Oct-31 08:27N 40°56' E 028°55'2 1.2
2014-Oct-31 06:29N 40°58' E 028°54'0 0.0
2014-Oct-31 05:29N 40°58' E 028°54'0 0.0
2014-Oct-31 04:29N 40°58' E 028°54'1 0.3
2014-Oct-31 01:32N 40°57' E 028°55'7 6.7
2014-Oct-31 00:32N 40°51' E 028°50'  
2014-Oct-21 19:30N 40°55' E 027°38'34 8.4
2014-Oct-21 15:26N 40°52' E 028°23'11 8.5
2014-Oct-21 14:08N 40°54' E 028°37'6 8.1
2014-Oct-21 13:21N 40°55' E 028°45'7 8.0
2014-Oct-21 12:32N 40°58' E 028°53'0 0.2
2014-Oct-21 10:24N 40°58' E 028°54'  

Dump ship's entire track history